Location: Borowce
(50.8255°N, 19.6209°E)
Time: 07:18:04
(UTC+00:00)

Okean O Rocket - Pass Details

Date: 19 May 2025
Orbit: 614 x 636 km, 98.0° (Epoch: 16 June)

Event Time Altitude Azimuth Distance (km) Brightness Sun altitude
Exits shadow 19:57:26 - 196° (SSW) 2,892 4.6 -10.9°
Reaches altitude 10° 19:59:53 10° 209° (SSW) 2,000 3.9 -11.1°
Maximum altitude 20:03:33 26° 266° (W) 1,237 3.5 -11.5°
Drops below altitude 10° 20:07:13 10° 324° (NW) 2,003 5.7 -11.8°
Sets 20:09:43 0° 337° (NNW) 2,911 6.8 -12.1°
